Theta_e
332 331 331 331 331 333 332 331 333 329 334 332 330 329 328 327 327 327 329 329 329 330 328 328 329 329 327 325 326 325 326 328 328 328 328 327 326 324 322 321 321 319
333 333 329 330 331 332 335 337 334 334 332 332 329 328 326 326 327 327 325 325 327 327 328 329 329 328 325 323 325 324 324 325 322 325 325 323 321 323 322 322 319 319
333 333 329 330 329 332 331 335 336 335 332 331 329 326 325 326 325 326 327 326 325 326 327 326 323 323 324 324 324 324 324 322 319 320 321 320 321 320 321 321 320 319
332 332 330 332 330 330 331 331 332 332 331 328 327 326 324 325 326 324 324 325 324 324 324 325 327 325 321 323 323 322 321 320 321 322 322 322 322 322 323 323 321 319
331 331 331 330 329 329 329 328 328 330 330 329 327 326 324 325 323 322 322 322 322 321 323 321 323 324 324 321 320 318 319 319 321 320 319 319 321 322 323 323 320 319
331 330 329 327 327 328 328 326 326 326 327 327 327 325 324 324 322 321 320 320 320 319 320 319 320 322 320 320 320 320 321 318 317 316 316 316 318 320 320 322 319 319
330 330 328 327 327 329 327 327 327 326 328 327 325 326 324 323 321 319 318 319 317 317 317 320 320 321 322 321 321 319 319 319 318 317 316 317 317 318 319 319 318 317
330 329 327 326 327 327 327 327 326 327 329 326 326 324 324 321 319 322 320 318 316 316 317 317 318 319 322 322 318 320 320 322 321 318 316 317 320 317 317 320 320 316
329 326 326 326 326 326 325 324 326 327 326 327 326 324 326 324 321 323 320 319 317 317 315 316 317 319 321 319 320 320 319 321 320 318 319 319 317 316 315 318 317 317
328 326 324 324 325 325 326 326 325 325 325 326 324 322 323 326 321 321 322 321 319 316 316 317 318 320 319 317 318 319 320 319 318 319 320 319 318 314 315 317 316 316
328 327 325 324 325 325 326 325 326 323 322 321 325 323 322 326 319 323 321 320 322 317 316 317 318 318 317 318 320 320 321 321 318 319 320 320 319 319 319 317 317 317
329 328 329 327 326 325 327 327 324 325 324 324 323 321 324 326 320 322 319 317 318 317 317 317 317 319 318 316 317 321 320 320 321 319 320 319 319 320 317 320 318 318
326 325 326 327 328 328 331 329 325 331 323 324 325 323 325 325 320 322 322 322 316 320 318 319 318 319 320 320 319 319 319 319 322 320 321 321 319 320 318 320 319 319
325 327 328 328 329 331 328 329 330 330 328 327 326 326 322 321 322 321 321 323 320 320 320 320 320 319 320 322 320 321 323 321 322 321 320 321 321 320 320 319 321 321
328 327 328 328 327 328 327 328 327 327 327 324 325 328 325 322 324 323 320 318 321 321 322 320 323 320 322 321 322 320 323 323 323 322 322 321 322 321 322 321 320 321
326 327 327 328 327 327 327 326 324 324 324 323 323 324 326 323 325 324 321 320 320 322 323 324 324 324 321 313 315 324 321 321 324 324 322 322 321 321 322 322 324 323
325 326 327 326 327 327 326 325 324 324 323 323 324 325 325 326 324 321 321 319 318 321 324 325 327 326 305 305 306 309 322 324 323 324 325 324 324 323 323 325 322 319
325 324 325 325 325 324 325 324 323 323 324 325 326 326 325 326 323 323 323 322 321 320 322 324 322 305 300 304 305 303 302 320 325 325 325 324 324 323 322 320 319 316
323 323 322 324 324 324 325 324 324 325 323 322 322 323 323 324 323 324 325 326 325 322 322 323 320 310 304 301 303 303 296 307 324 325 324 323 323 322 319 318 315 315
319 321 321 324 325 325 323 321 321 320 323 323 321 321 321 322 324 324 325 325 324 324 322 323 318 310 303 300 300 299 296 302 320 323 323 324 322 319 320 317 318 315
313 313 313 319 325 325 324 322 321 320 321 320 319 321 322 321 322 322 323 323 323 324 323 323 319 305 302 299 297 297 296 299 316 319 319 321 316 314 314 317 318 316
311 312 314 313 314 316 320 322 324 323 323 325 324 324 324 325 323 323 323 323 324 324 323 322 319 302 300 298 297 296 297 309 315 317 317 318 321 318 318 318 318 319
308 309 311 312 313 313 314 318 321 322 323 324 322 321 322 322 322 322 322 322 322 322 322 322 320 305 296 296 296 295 299 313 316 316 316 317 319 319 320 320 319 320
306 306 308 310 310 311 312 314 314 315 318 324 321 321 321 321 322 322 321 321 321 320 322 321 321 310 299 297 296 294 303 314 315 316 315 317 318 318 318 313 306 306
305 306 307 308 308 310 312 312 313 314 314 316 320 321 320 322 320 319 319 320 321 321 318 320 317 305 294 295 295 294 301 315 317 316 315 317 316 315 316 311 305 301
304 304 306 307 306 308 310 311 312 312 313 313 314 313 315 318 319 318 319 320 321 322 322 319 317 316 303 293 294 294 296 313 317 316 315 314 314 313 314 310 305 302
Wind_Speed
4 4 3 3 3 2 2 2 2 2 1 3 4 4 5 4 4 4 3 3 3 3 4 3 2 2 4 6 6 6 4 4 4 4 5 5 4 4 4 4 4 4
4 3 3 3 3 2 1 2 2 1 2 3 5 5 5 3 3 3 4 4 4 4 3 3 3 3 4 4 4 5 3 3 4 4 6 5 4 3 3 4 5 5
5 4 5 4 4 3 3 2 1 2 2 4 5 5 4 3 4 3 3 3 4 4 4 4 5 4 3 3 4 3 4 5 6 6 6 5 4 3 2 3 4 4
5 5 5 4 5 4 3 3 2 2 3 5 4 4 4 3 3 4 4 4 4 4 4 3 3 3 4 4 4 3 4 4 4 4 3 3 3 3 3 4 6 6
6 5 4 5 4 4 3 3 3 3 3 3 5 4 4 4 4 3 3 4 4 4 4 4 3 3 3 4 4 4 3 4 4 4 4 4 3 3 2 3 5 5
6 5 5 6 4 4 4 4 3 3 3 4 4 4 4 4 4 4 4 4 4 4 4 4 3 3 4 4 4 3 3 4 4 5 6 6 5 4 4 4 4 4
6 6 6 6 5 4 4 3 3 3 3 3 4 4 4 4 4 4 4 4 4 4 4 4 4 4 3 3 3 4 3 3 3 4 4 4 4 4 4 5 4 4
7 6 6 6 5 4 4 3 3 3 3 3 3 4 4 4 4 3 4 4 4 4 4 5 4 4 3 3 5 3 1 1 3 3 4 4 3 5 4 3 4 4
7 6 6 6 6 5 4 4 4 3 3 3 3 3 3 3 4 3 3 3 4 4 4 4 4 4 4 5 4 2 1 2 4 4 2 3 4 4 4 3 5 4
7 7 7 5 5 5 5 4 5 4 3 3 3 3 3 3 4 3 3 3 4 4 4 4 4 4 4 5 4 3 2 3 4 3 1 1 2 4 4 3 4 3
6 8 8 7 6 4 6 6 5 6 4 4 3 3 3 2 4 3 3 3 3 4 4 4 4 4 4 4 4 4 3 3 3 2 1 1 1 4 5 3 3 3
1 1 3 7 5 5 4 5 5 4 4 4 3 4 3 2 4 3 3 3 3 3 4 4 4 4 4 4 4 3 4 3 3 3 1 1 1 2 3 2 3 3
3 5 5 4 5 4 2 3 4 2 4 3 3 3 3 2 4 3 3 3 4 3 4 4 4 4 3 4 4 4 4 3 3 4 2 1 3 1 2 1 3 2
8 7 7 5 3 2 3 2 1 2 2 1 1 3 4 3 3 3 3 3 3 3 3 4 4 4 3 3 3 3 3 4 3 4 3 2 3 3 3 3 2 1
4 5 3 3 3 3 4 2 3 3 3 3 4 0 4 3 3 3 3 3 2 3 2 4 3 4 3 3 3 3 3 3 3 3 3 3 3 3 2 3 3 1
5 5 3 4 4 3 3 4 4 2 2 1 2 4 2 3 2 2 3 3 3 2 2 3 3 3 3 8 2 1 4 4 4 3 3 3 3 3 2 1 5 9
4 4 3 3 3 2 3 4 5 3 2 2 3 3 3 3 2 4 4 4 5 3 2 1 2 2 7 5 6 3 1 3 1 2 2 2 2 2 1 3 8 8
2 4 4 3 3 3 3 3 4 3 3 2 0 2 3 3 4 4 2 3 4 4 3 3 5 3 4 1 3 5 6 0 2 3 2 2 2 1 6 8 7 5
2 2 3 3 3 2 3 3 2 1 2 3 1 2 4 3 3 4 3 2 2 3 3 3 5 4 2 3 2 1 2 2 1 3 3 3 2 6 8 7 7 5
3 4 4 1 2 4 4 3 1 1 1 2 3 4 4 3 3 3 3 2 3 3 3 5 5 5 8 8 10 8 6 3 2 1 2 1 6 4 4 3 5 6
7 7 6 1 0 2 3 6 9 8 8 8 8 9 10 7 6 4 3 3 3 4 3 2 5 11 14 11 8 9 8 4 3 2 1 2 5 2 1 0 2 5
9 7 4 5 5 4 3 1 2 5 4 3 3 4 4 5 4 4 5 5 6 5 5 3 7 12 13 11 12 9 5 3 3 2 2 2 4 7 6 8 7 6
9 9 7 7 6 5 4 3 2 1 2 3 3 3 3 4 5 5 6 5 5 6 5 5 5 10 8 10 11 11 7 4 3 2 3 4 3 6 7 5 5 8
8 8 7 7 7 8 7 6 6 6 3 2 4 3 5 5 5 5 4 5 5 6 6 6 3 9 15 14 11 10 9 6 4 5 5 5 3 4 5 4 4 2
8 7 6 5 6 6 6 7 6 5 5 5 3 4 4 3 5 5 4 5 6 4 7 5 4 2 3 10 13 13 10 6 6 5 6 3 3 3 3 6 4 5
6 7 5 4 5 5 5 5 6 6 6 6 6 5 3 4 6 7 5 1 0 2 4 6 4 5 9 10 9 10 12 8 6 7 4 3 5 5 5 4 5 5
Wind_Direction
139 151 148 165 156 154 165 137 127 177 180 124 110 107 93 84 73 92 102 103 97 91 77 74 61 48 46 44 57 67 64 69 70 76 65 57 57 58 57 63 78 76
161 158 149 163 140 134 105 90 110 164 89 96 105 96 97 111 123 107 122 133 129 127 133 127 121 86 57 53 66 85 102 104 102 104 105 95 85 63 50 54 68 61
166 172 164 166 144 144 119 103 98 66 103 102 103 111 120 126 134 152 145 118 110 101 86 74 77 89 101 91 80 78 72 69 66 63 75 88 88 94 101 94 106 111
171 166 167 150 134 128 122 117 112 121 103 115 120 124 136 140 126 115 112 114 116 113 124 139 123 100 101 112 111 100 101 111 126 124 108 94 91 84 60 57 72 70
159 161 158 130 126 133 141 147 158 144 138 128 121 136 133 132 135 137 131 121 122 121 113 101 106 110 110 98 99 103 123 133 129 116 116 116 122 113 113 106 105 104
155 155 141 135 140 147 155 156 162 143 141 135 141 150 135 156 151 142 134 143 124 120 117 117 125 118 110 131 142 153 127 108 120 133 140 141 141 132 121 116 111 110
150 152 135 138 143 147 150 151 148 145 142 139 158 143 152 164 150 151 154 139 145 140 125 120 115 113 123 131 119 107 144 162 150 124 109 98 109 133 125 103 102 104
151 146 139 141 148 153 147 154 142 149 144 153 166 140 171 166 151 149 147 156 148 127 131 137 137 136 148 108 91 100 104 147 125 107 114 139 123 80 83 105 110 94
158 144 139 141 150 160 158 168 148 144 157 156 153 145 179 174 139 149 162 145 136 138 141 144 138 135 105 103 112 121 121 67 82 91 89 87 107 131 115 89 86 89
163 144 146 155 160 165 169 162 150 147 159 164 171 154 180 184 129 171 170 155 143 140 138 140 127 125 133 135 149 135 120 105 100 98 102 117 128 124 110 108 100 92
159 153 156 162 168 176 172 172 161 158 165 174 164 177 166 177 141 181 177 165 158 155 144 147 141 157 143 143 125 145 140 110 123 141 154 138 139 100 123 118 117 113
88 38 162 152 166 178 197 166 157 158 164 172 159 179 159 169 155 194 180 171 175 176 155 152 156 159 154 148 148 157 138 157 140 123 194 147 97 94 119 119 137 136
117 160 251 203 184 162 154 89 136 146 150 199 153 169 146 185 160 201 176 201 177 196 163 162 157 166 167 167 154 168 154 170 161 164 160 216 137 169 142 123 142 145
172 180 186 185 165 142 103 107 74 178 133 198 182 162 153 198 185 197 172 243 176 208 175 164 151 164 174 167 171 163 167 158 194 156 188 195 163 191 161 164 146 155
143 145 164 158 135 135 135 132 71 31 78 10 334 312 145 187 207 187 160 237 237 195 187 150 166 159 188 165 185 176 171 174 189 175 199 193 177 197 185 153 152 125
110 115 133 125 133 136 101 89 100 83 41 356 323 331 327 162 254 191 163 208 257 222 190 157 165 164 181 178 162 202 178 197 181 193 202 204 179 195 200 137 77 64
105 128 124 119 111 117 114 114 111 114 118 227 273 306 320 330 243 211 192 190 211 234 221 173 165 95 105 156 156 56 244 162 203 208 207 242 212 178 167 76 67 66
83 130 140 153 151 152 143 137 137 163 171 155 309 324 304 296 299 302 242 192 195 223 212 185 87 31 359 47 72 69 57 217 198 199 194 215 242 209 30 42 45 47
40 44 99 152 168 142 118 106 102 109 123 126 184 286 311 302 296 280 293 286 209 219 221 126 121 208 179 355 276 164 114 78 227 185 187 197 232 84 99 127 150 167
108 123 143 65 122 141 153 132 151 299 325 85 256 248 237 248 255 278 288 296 297 295 263 123 162 201 243 229 222 211 201 181 241 230 193 169 76 84 115 147 174 178
27 23 11 25 100 149 176 168 166 188 212 196 207 212 198 196 211 219 235 248 252 258 265 151 178 190 219 225 238 236 219 199 248 250 279 108 119 131 30 161 182 193
4 4 15 351 351 360 347 307 177 167 188 178 177 188 180 183 190 203 214 219 228 230 233 170 174 191 212 218 214 218 184 220 228 241 241 238 168 148 198 228 209 202
355 350 356 348 360 329 313 331 338 228 164 190 184 231 222 196 203 205 220 224 221 224 222 224 171 197 206 219 219 194 176 209 218 233 241 241 200 157 200 190 188 192
346 342 341 348 344 337 350 355 343 335 308 199 210 206 216 217 209 212 215 223 227 232 225 236 205 183 202 211 213 201 195 199 209 220 233 229 201 173 149 132 94 89
324 317 327 341 334 336 345 336 334 319 307 307 272 212 228 231 220 226 214 208 212 218 229 235 73 58 239 221 201 198 201 210 213 217 224 199 170 177 163 121 104 48
312 312 319 335 329 331 323 322 320 316 313 311 308 304 267 218 212 218 226 247 258 236 65 85 156 202 203 206 212 209 206 209 216 224 191 208 204 188 151 126 103 89